Tracking 29777 objects as of 7-Oct-2024
HD Live streaming from Space Station
objects crossing your sky now

STARLINK-5691

Track STARLINK-5691 now!
10-day predictions
STARLINK-5691 is classified as:


NORAD ID: 55478
Int'l Code: 2023-015AF
Perigee: 565.2 km
Apogee: 567.2 km
Inclination: 43.0 °
Period: 95.8 minutes
Semi major axis: 6937 km
RCS: Unknown
Launch date: February 2, 2023
Source: United States (US)
Launch site: AIR FORCE EASTERN TEST RANGE (AFETR)
Your satellite tracking list
Your tracking list is empty




NASA's NSSDC Master Catalog

Two Line Element Set (TLE):
1 55478U 23015AF  24280.20233229 -.00000060  00000-0  10620-4 0  9999
2 55478  43.0008 256.2411 0001454 270.4783  89.5893 15.02529573 92756
Source of the keplerian elements: AFSPC